Location: Unspecified
(43.4325°N, 0.0000°E)
Time: 00:30:08
(UTC+00:00)

CAS-6 - Visible Passes

Search period start: 04 April 2026 00:00
Search period end: 14 April 2026 00:00
Orbit: 600 x 619 km, 97.8° (Epoch: 29 March)

Date Brightness Start Highest point End Pass type
(mag) Time Alt. Az. Time Alt. Az. Time Alt. Az.
4 Apr ? 21:11:23 21° NNE 21:11:23 21° NNE 21:13:08 10° N visible
4 Apr ? 22:48:19 12° NW 22:48:19 12° NW 22:48:49 10° NW visible
5 Apr ? 21:25:22 24° NNE 21:25:22 24° NNE 21:27:16 10° N visible
6 Apr ? 21:39:20 26° N 21:39:20 26° N 21:41:20 10° N visible
7 Apr ? 21:53:19 27° N 21:53:19 27° N 21:55:18 10° NNW visible
8 Apr ? 20:30:21 12° NE 20:30:21 12° NE 20:31:30 10° NE visible
8 Apr ? 22:07:17 26° NNW 22:07:17 26° NNW 22:09:12 10° NNW visible
9 Apr ? 20:44:20 16° NE 20:44:20 16° NE 20:46:10 10° NNE visible
9 Apr ? 22:21:16 23° NW 22:21:16 23° NW 22:23:01 10° NNW visible
10 Apr ? 20:58:18 21° NE 20:58:18 21° NE 21:00:32 10° NNE visible
10 Apr ? 22:35:14 19° NW 22:35:14 19° NW 22:36:45 10° NNW visible
11 Apr ? 21:12:16 26° NE 21:12:16 26° NE 21:14:46 10° N visible
11 Apr ? 22:49:13 15° NW 22:49:13 15° NW 22:50:20 10° NW visible
12 Apr ? 21:26:15 32° NNE 21:26:15 32° NNE 21:28:52 10° N visible
12 Apr ? 23:03:11 12° WNW 23:03:11 12° WNW 23:03:44 10° NW visible
13 Apr ? 21:40:14 36° N 21:40:14 36° N 21:42:54 10° N visible
